Tracking 25709 objects as of 23-May-2022
HD Live streaming from Space Station
objects crossing your sky now

COSMOS 2251 DEB

Track COSMOS 2251 DEB now!
10-day predictions


NORAD ID: 36470
Int'l Code: 1993-036BBV
Perigee: 681.5 km
Apogee: 774.5 km
Inclination: 73.9 °
Period: 99.2 minutes
Semi major axis: 7098 km
RCS: 0.003 m2 (small)
Launch date: June 16, 1993
Source: Commonwealth of Independent States (former USSR) (CIS)
Launch site: PLESETSK MISSILE AND SPACE COMPLEX (PKMTR)

Note: This is SATELLITE DEBRIS
aabbcc
Your satellite tracking list
Your tracking list is empty




NASA's NSSDC Master Catalog

Two Line Element Set (TLE):
1 36470U 93036BBV 22142.74446948  .00006407  00000-0  15657-2 0  9991
2 36470  73.8676 277.4030 0065469   8.1522 352.0684 14.51468164470087
Source of the keplerian elements: AFSPC